Location: Plymouth
(43.7570°N, 71.6890°W)
Time: 08:14:18
(UTC-05:00)

Daily predictions for brighter satellites

Satellite Brightness Start Highest point End
(mag) Time Altitude Azimuth Time Altitude Azimuth Time Altitude Azimuth
Cosmos 2333 Rocket 2.5 17:02:17 10° S 17:07:43 51° ESE 17:13:11 10° NE
Cosmos 2219 Rocket 2.3 17:03:37 10° SSW 17:09:13 68° ESE 17:14:48 10° NNE
IDEFIX/ARIANE 42P 2.6 17:04:35 10° SSE 17:09:48 89° E 17:15:06 10° NNW
CZ-4 R/B 1.4 17:06:57 10° SSE 17:10:50 84° WSW 17:14:46 10° NNW
Cosmos 1743 Rocket 3.6 17:08:31 10° S 17:12:58 75° E 17:17:28 10° NNE
Cosmos 1328 Rocket 3.6 17:08:44 10° N 17:13:13 88° ENE 17:17:40 10° S
Meteor 2-2 Rocket 4.2 17:08:16 10° N 17:13:57 80° E 17:19:36 10° SSE
Cosmos 2278 Rocket 2.2 17:13:09 10° NNW 17:18:48 63° ENE 17:24:25 10° SE
Cosmos 1626 4.1 17:18:48 10° ESE 17:20:09 12° E 17:21:30 10° ENE
Cosmos 1151 Rocket 3.1 17:16:17 10° N 17:20:29 52° ENE 17:24:41 10° SSE
Cosmos 371 Rocket 3.3 17:18:34 10° SSW 17:23:21 78° ESE 17:28:11 10° NNE
Cosmos 1515 Rocket 3.6 17:19:15 10° N 17:23:45 85° E 17:28:12 10° S
SJ-6B 4.4 17:21:50 10° ESE 17:24:34 17° ENE 17:27:19 10° NNE
MONITOR-E 4.4 17:21:50 10° SSE 17:24:53 48° ENE 17:27:58 10° N
Aureole 2 Rocket 3.5 17:22:51 10° SSE 17:26:10 31° ESE 17:29:44 10° NE
SMAP 3.4 17:23:11 10° S 17:27:49 70° WSW 17:32:29 10° NNW
Cosmos 1763 Rocket 4.3 17:23:15 10° SW 17:28:21 53° WNW 17:33:26 10° NNE
Cosmos 1455 3.8 17:27:42 10° NE 17:29:52 14° ENE 17:32:02 10° ESE
Cosmos 1674 3.9 17:26:32 10° SSW 17:30:12 44° WNW 17:33:56 10° N
SKYMED 2 4.0 17:26:31 10° NNE 17:30:38 40° E 17:34:43 10° SSE
Cosmos 1844 4.3 17:25:57 10° NNW 17:31:39 63° WSW 17:37:21 10° S
Cosmos 372 Rocket 3.9 17:26:52 10° NNW 17:31:56 62° ENE 17:36:58 10° SSE
Cosmos 1726 2.1 17:30:23 10° N 17:34:09 72° E 17:37:55 10° SSE
Lacrosse 4 Rocket 3.1 17:32:35 10° NNE 17:34:41 14° NE 17:35:44 13° ENE
Meteor 1-27 4.4 17:30:07 10° N 17:35:51 56° ENE 17:41:34 10° SSE
Cosmos 1500 Rocket 3.6 17:34:31 10° S 17:38:49 81° W 17:43:13 10° N
Cosmos 540 Rocket 3.4 17:35:03 10° S 17:40:11 72° ESE 17:45:21 10° NNE
USA 215 3.4 17:35:59 10° ESE 17:42:21 56° NNE 17:48:43 10° NW
Cosmos 2237 Rocket 2.2 17:38:43 10° SSW 17:44:19 78° ESE 17:49:59 10° NNE
Cosmos 44 Rocket 3.8 17:39:46 10° SW 17:44:51 63° NW 17:49:52 10° NNE
Cosmos 2084 3.8 17:41:19 10° SW 17:45:07 54° NW 17:48:52 10° NNE
NOSS 0 Rocket 4.0 17:40:07 10° SSW 17:46:21 89° NW 17:52:36 10° NNE
Cosmos 2369 Rocket 4.0 17:45:04 10° NNE 17:47:01 12° NE 17:47:37 11° NE
FREGAT/IRIS 3.9 17:45:12 10° ESE 17:47:33 21° ENE 17:49:55 10° NNE
COSMOS 2428 4.1 17:44:06 10° WSW 17:49:21 36° NW 17:54:37 10° N
Sich 1 4.1 17:45:48 10° SE 17:49:25 25° E 17:52:37 12° NE
Cosmos 1300 2.9 17:45:48 10° NNW 17:49:38 75° W 17:53:28 10° S
Cosmos 1634 Rocket 4.3 17:44:56 10° NNW 17:51:06 71° W 17:57:12 10° S
SL-16 R/B 2.7 17:46:08 10° S 17:51:19 39° ESE 17:56:02 12° NE
Cosmos 1340 Rocket 2.9 17:47:36 10° S 17:51:24 49° E 17:55:13 10° NNE
SL-14 R/B 3.3 17:48:43 10° S 17:52:38 88° W 17:56:39 10° N
Abrixas 2.5 17:51:32 10° SW 17:54:26 64° SSE 17:55:48 27° ENE
Cosmos 1461 3.5 17:51:10 10° S 17:54:59 35° ESE 17:57:06 21° ENE
Cosmos 2058 2.8 17:51:14 10° S 17:55:19 73° E 17:59:25 10° NNE
Cosmos 1484 Rocket 3.1 17:51:53 10° S 17:55:48 70° W 17:59:48 10° NNW
Cosmos 1633 Rocket 4.0 17:53:08 10° SE 17:56:46 26° E 17:58:57 18° NE
Cosmos 2297 3.7 17:55:43 10° NNW 18:01:25 66° ENE 18:07:06 10° SE
Cosmos 304 Rocket 3.8 17:57:33 10° S 18:02:14 56° ESE 18:06:33 12° NNE
Lacrosse 5 3.7 18:04:51 10° NW 18:08:21 18° N 18:10:53 13° NNE
Meteor 1-28 Rocket 3.1 18:10:31 10° NNE 18:14:15 88° ESE 18:17:58 10° SSW
CZ-4C R/B 4.4 18:11:52 10° NNW 18:15:38 15° NNE 18:17:48 14° NE
Cosmos 1900 4.2 18:10:57 10° NNW 18:15:55 78° ENE 18:20:55 10° SE
Meteor 2-10 4.4 18:11:49 10° NNW 18:16:52 67° W 18:22:03 10° S
Cosmos 1356 Rocket 3.4 18:13:08 10° S 18:17:00 52° E 18:19:10 24° NNE
Aureole 1 Rocket 4.3 18:13:14 10° SSE 18:18:09 38° E 18:22:28 18° NE
COSMO-SKYMED 1 3.1 18:14:25 10° N 18:18:43 61° WNW 18:22:59 10° SSW
Cosmos 1707 Rocket 3.4 18:14:49 10° N 18:19:10 72° E 18:23:29 10° SSE
CENTAUR R/B 4.0 18:14:04 10° W 18:19:42 31° NW 18:25:58 10° NNE
DMSP B5D1-3 4.5 18:14:57 10° NNE 18:20:05 89° WNW 18:25:11 10° SSW
USA 229 DEB 4.2 18:15:58 10° S 18:22:07 37° ESE 18:24:43 28° ENE
USA 229 4.2 18:16:05 10° S 18:22:13 37° ESE 18:24:46 28° ENE
Spot 2 Rocket 3.8 18:19:36 10° SE 18:24:19 42° ENE 18:29:04 10° N
Resurs 01 Rocket 1.9 18:26:17 32° ESE 18:27:45 43° ENE 18:31:59 10° N
FENGYUN 3A 3.8 18:23:17 10° SE 18:28:25 49° ENE 18:33:35 10° N
Lacrosse 5 rocket 2.8 18:26:36 10° WNW 18:30:05 34° SW 18:33:44 10° SSE
Cosmos 1666 Rocket 3.4 18:26:33 10° S 18:30:53 73° E 18:34:14 17° NNE
METEOR-M 4.2 18:28:19 10° SSE 18:33:39 82° WSW 18:39:03 10° NNW
Cosmos 1184 Rocket 3.5 18:30:57 10° S 18:33:17 40° SSE 18:33:17 40° SSE
Cosmos 1538 Rocket 3.9 18:32:01 10° SSW 18:37:17 80° ESE 18:40:45 23° NNE
Iridium 4 Rocket 3.1 18:35:41 10° SSE 18:39:48 53° ESE 18:39:48 53° ESE
ATLAS 5 CENTAUR R/B 3.9 18:38:27 10° NNW 18:41:50 17° NNE 18:41:50 17° NNE
Orbus 7S? 4.4 18:40:44 10° NW 18:44:53 66° NE 18:48:52 30° ESE
Cosmos 923 Rocket 4.5 18:40:16 10° S 18:44:22 39° SE 18:44:22 39° SE
FengYun 1-2 T 4.1 18:41:00 10° SSE 18:46:32 75° ENE 18:52:03 10° N
ALOS 2.1 18:42:13 10° SSE 18:46:52 73° ENE 18:51:32 10° N
Cosmos 2333 Rocket 4.0 18:47:29 10° WSW 18:52:15 27° NW 18:57:03 10° N
Cosmos 2219 Rocket 4.3 18:49:24 10° W 18:53:41 22° NW 18:57:59 10° N
Cosmos 1626 3.1 18:51:27 10° SSW 18:55:04 46° WNW 18:56:51 26° NNW
Cosmos 1603 4.0 18:50:26 10° S 18:55:01 45° SE 18:55:01 45° SE
SJ-6B 4.0 18:55:00 10° S 18:58:53 44° W 19:02:52 10° NNW
Cosmos 2242 Rocket 3.6 18:55:47 10° N 19:00:13 80° W 19:04:39 10° S
Cosmos 1943 Rocket 4.2 18:56:57 10° N 18:57:49 13° N 18:57:49 13° N
Nadezhda 4 Rocket 4.2 18:54:47 10° SSW 19:01:02 72° W 19:07:22 10° N
Cosmos 1455 3.5 19:02:12 10° NNW 19:05:47 40° W 19:09:21 10° SSW
Lacrosse 4 Rocket 2.7 19:09:51 10° NNW 19:12:09 32° NW 19:12:09 32° NW
Cosmos 773 Rocket 4.2 19:13:30 10° SSW 19:18:38 68° WNW 19:19:20 60° NNW
Cosmos 1092 Rocket 4.2 19:15:05 10° SSW 19:21:23 70° W 19:27:44 10° N
USA 215 3.9 19:21:36 25° SSE 19:25:23 51° SW 19:31:45 10° WNW
Cosmos 2237 Rocket 4.4 19:25:03 10° W 19:29:03 19° NW 19:33:05 10° N
ATLAS 3B R/B 4.4 19:26:05 10° NNW 19:29:53 18° N 19:29:53 18° N
Cosmos 2369 Rocket 3.6 19:26:46 10° NNW 19:29:27 28° N 19:29:27 28° N
SL-16 R/B 3.6 19:30:21 10° WSW 19:35:28 34° NW 19:37:58 24° N
Lacrosse 5 4.2 19:48:47 10° NW 19:50:06 16° NNW 19:50:06 16° NNW
CZ-3A R/B 4.3 19:56:11 10° WNW 20:00:23 34° SW 20:01:31 31° SSW
Resurs 01 Rocket 4.1 20:03:50 19° WSW 20:04:25 19° W 20:07:38 10° NW
CZ-4C R/B 4.2 19:59:58 10° NNW 20:02:59 25° N 20:02:59 25° N
USA 229 DEB 4.4 20:06:12 10° WSW 20:12:13 50° WNW 20:12:13 50° WNW
USA 229 4.3 20:06:17 10° WSW 20:12:16 51° WNW 20:12:16 51° WNW
